, NM

(GMT )
Holloman AFB

Weather History for KHMN - September, 2013

Change the Weather History Date:

Monday, September 23, 2013

  Actual Average Record
Temperature  
Mean Temperature 69 °F -  
Max Temperature 80 °F 83 °F 95 °F (2005)
Min Temperature 58 °F 55 °F 46 °F (2004)
Cooling Degree Days 4    
Growing Degree Days 19 (Base 50)    
Moisture  
Dew Point 37 °F    
Average Humidity 35    
Maximum Humidity 69    
Minimum Humidity 13    
Precipitation  
Precipitation 0.00 in - - ()
Sea Level Pressure  
Sea Level Pressure 29.80 in    
Wind  
Wind Speed 10 mph (NNW)    
Max Wind Speed 16 mph    
Max Gust Speed 20 mph    
Visibility 10 miles    
Events      
Averages and records for this station are not official NWS values.
T = Trace of Precipitation, MM = Missing Value Source: NWS Daily Summary

Daily Weather History Graph

Daily Weather History Graph

Search for Another Location

Airport or City:

Trip Planner

Search our weather history database for the weather conditions in past years. The results will help you decide how hot, cold, wet, or windy it might be!

Date:

Astronomy

Sep. 23, 2013 Rise Set
Actual Time 6:53 AM MDT 6:59 PM MDT
Civil Twilight 6:28 AM MDT 7:23 PM MDT
Nautical Twilight 6:00 AM MDT 7:52 PM MDT
Astronomical Twilight 5:31 AM MDT 8:21 PM MDT
Moon 9:48 PM MDT (9/23) 11:00 AM MDT (9/23)
Length of Visible Light 12h 55m
Length of Day
12h 05m
Waning Gibbous, 81% of the Moon is Illuminated
Sep 23
Waning Gibbous
Sep 26
Last Quarter
Oct 4
New
Oct 11
First Quarter
Oct 18
Full

Hourly Weather History & Observations

Time (MDT) Temp. Dew Point Humidity Pressure Visibility Wind Dir Wind Speed Gust Speed Precip Events Conditions
12:58 AM 70.5 °F 50.7 °F 49% 29.60 in 10.0 mi South 11.5 mph - N/A   Clear
1:58 AM 68.7 °F 51.3 °F 54% 29.61 in 10.0 mi SE 11.5 mph - N/A   Clear
2:58 AM 67.1 °F 51.3 °F 57% 29.62 in 10.0 mi SSE 5.8 mph - N/A   Clear
3:58 AM 65.5 °F 50.4 °F 58% 29.63 in 10.0 mi SE 4.6 mph - N/A   Clear
4:58 AM 61.7 °F 51.4 °F 69% 29.66 in 10.0 mi NE 5.8 mph - N/A   Clear
5:58 AM 61.5 °F 49.5 °F 65% 29.70 in 10.0 mi North 6.9 mph - N/A   Clear
6:58 AM 58.3 °F 45.9 °F 63% 29.72 in 10.0 mi North 9.2 mph - N/A   Clear
7:58 AM 59.5 °F 43.9 °F 56% 29.76 in 10.0 mi North 8.1 mph - N/A   Clear
8:58 AM 68.5 °F 34.7 °F 29% 29.77 in 10.0 mi North 12.7 mph - N/A   Clear
9:58 AM 72.0 °F 29.5 °F 21% 29.76 in 10.0 mi North 15.0 mph - N/A   Clear
10:56 AM 73.4 °F 28.4 °F 19% 29.97 in 10.0 mi North 16.1 mph - N/A   Clear
11:56 AM 77.0 °F 28.4 °F 17% 29.97 in 10.0 mi NW 13.8 mph - N/A   Clear
12:56 PM 77.0 °F 26.6 °F 16% 29.97 in 10.0 mi NNW 12.7 mph - N/A   Clear
1:56 PM 78.8 °F 28.4 °F 16% 29.96 in 10.0 mi NNW 10.4 mph - N/A   Clear
2:58 PM 79.0 °F 25.7 °F 14% 29.76 in 10.0 mi WNW 12.7 mph - N/A   Clear
3:02 PM 80.6 °F 24.8 °F 13% 29.95 in 10.0 mi NNW 12.7 mph 19.6 mph N/A   Clear
3:58 PM 80.4 °F 27.1 °F 14% 29.75 in 10.0 mi NNW 13.8 mph - N/A   Clear
4:58 PM 80.4 °F 28.0 °F 15% 29.75 in 10.0 mi NNW 11.5 mph - N/A   Clear
5:58 PM 79.7 °F 28.6 °F 15% 29.77 in 10.0 mi NW 11.5 mph - N/A   Clear
6:58 PM 75.2 °F 36.3 °F 24% 29.79 in 10.0 mi NW 5.8 mph - N/A   Clear
7:58 PM 69.3 °F 37.2 °F 31% 29.82 in 10.0 mi North 6.9 mph - N/A   Clear
8:58 PM 67.1 °F 37.4 °F 34% 29.83 in 10.0 mi NNW 5.8 mph - N/A   Clear
9:58 PM 66.7 °F 37.6 °F 34% 29.86 in 10.0 mi NW 6.9 mph - N/A   Clear
10:58 PM 61.7 °F 38.5 °F 42% 30.04 in 10.0 mi NNW 5.8 mph - N/A   Clear
11:58 PM 58.3 °F 40.6 °F 52% 30.06 in 10.0 mi North 8.1 mph - N/A   Clear